Погода в Урюпинске

Погода в Урюпинске : погода сейчас, прогноз погоды и архив. Всё, что Вы хотите узнать о погоде в Урюпинске!

Хотите узнать прогноз погоды в Урюпинске? Тогда Вам сюда: Погода в Урюпинске

Поиск расширенной информации на нашем сайте:

Другие новости

Новости СМИ2

Главная страница сайта

Новости сайта

03.07.2017

Напоминаем, что на нашем специализированном сайте Метеоцентр.Азия вы можете получить высокодетализированные автоматические прогнозы погоды по пунктам России, СНГ и мира в авиационном формате (включающие направление и скорость ветра, видимость, явления погоды, количество и форму облачности, нижнюю и верхнюю границу облачности).


Погода в Урюпинске - сегодня

Время (UTC), дата Ветер
(°,м/с) 
Видим.   Явления Облачность Т
(°С)
Тd
(°С)
f(%) Тe
(°С)
Pmin
(гПа)
dP
(гПа)
Po
(мм)
O2
(г/м3)
Тmin Tmax R s Состояние
почвы
12 19.10.17 240 (ЮЗ) 20000 м    10/1 600 м средняя, верхняя 
[Cu med, cong|Ac trans|Ci fib]
+13.6 +9.2 75 +13  1015.3  0.5  752  287           
18 19.10.17 220 (ЮЗ) 4000 м  дымка  9/0 средняя 
[Ac trans]
+9.9 +8.7 92 +11  1016.8  0.8  753  291           
21 19.10.17 330 (СЗ) 10 км    9/0 средняя 
[Ac trans]
+8.7 +6.5 86 +9  1017.8  0.9  754  293           
00 20.10.17 360 (С) 10 км    1/0 верхняя 
[Ci fib]
+5.5 +3.1 85 +6  1018.6  0.7  754  297           
06 20.10.17 340 (С) 20000 м    3/0 средняя 
[Ac trans]
+5.9 +2.5 79 +7  1020.5  1.1  755  298  +1.4         
09 20.10.17 350 (С) 20000 м    5/0 средняя, верхняя 
[Ac trans|Ci fib]
+10.7 +0.7 50 +10  1020.6  0.3  756  293           
12 20.10.17 360 (С) 20000 м    6/0 средняя, верхняя 
[Ac trans|Ci fib]
+11 +0.2 47 +11  1020.1  -0.5  755  293           
18 20.10.17 тихо ()   10 км    10/0 средняя, верхняя 
[Ac trans|Ci fib]
+4.3 +0.3 75 +4  1021.6  0.6  756  300           
21 20.10.17 тихо ()   10 км    10/0 средняя 
[Ac As]
+3.8 +0.9 81 +4  1021.2  -0.4  756  300           
00 21.10.17 тихо ()   10 км    6/0 средняя 
[Ac trans]
+1.2 -0.5 88 +1  1021.1  -0.2  756  303           
06 21.10.17 тихо ()   20000 м    10/0 средняя, верхняя 
[Ac trans|Ci fib]
+3.7 +0.8 81 +4  1020.6  -0.1  755  300  -1.4         
09 21.10.17 360 (С) 20000 м    10/1 600 м средняя, верхняя 
[Cu med, cong|Ac trans|Ci fib]
+9.5 -0.4 50 +11  1019.3  -1  755  294           
12 21.10.17 тихо ()   20000 м    10/5 600 м средняя, верхняя 
[Cu med, cong|Ac trans|Ci fib]
+9 -2.2 45 +9  1017.9  -1.4  754  294           
18 21.10.17 050 (СВ) 10 км    10/3 600 м средняя 
[Cu med, cong|Ac As]
+5 +0.1 71 +6  1017.1  -0.4  753  298           
21 21.10.17 тихо ()   10 км    10/0 средняя, верхняя 
[Ac trans|Ci fib]
+3.8 +0.5 79 +4  1016  -1.1  752  299           
00 22.10.17 тихо ()   10 км    10/5 600 м средняя 
[Cu med, cong|Ac As]
+4 +0.7 79 +4  1015.1  -0.9  751  298           
03 22.10.17 020 (С) 10 км  слаб. ливневой дождь  10/6 300 м кучево-дожд., средняя 
[Cb cap|Ac As]
+3.3 +1.8 90 +4  1014.8  -0.4  751  299  +3.3       
06 22.10.17 060 (СВ) 20000 м  в посл. час ливневой дождь  10/6 300 м кучево-дожд., средняя 
[Cb cap|Ac As]
+3.5 +1.4 86 +4  1014.5  -0.2  751  299           
09 22.10.17 360 (С) 20000 м  слаб. ливневой дождь  10/8 300 м кучево-дожд., средняя 
[Cb cap|Ac As]
+4.6 +1.9 83 +3  1014.4  0.1  751  297           
18 22.10.17 310 (СЗ) 10 км  {ливн. осадки}  ясно 
-1.3 -3.3 86 -2  1017.9  1.6  753  305           
21 22.10.17 310 (СЗ) 10 км    ясно 
-2.8 -4.2 90 -4  1019  754  307           
00 23.10.17 280 (З) 10 км    9/0 средняя 
[Ac trans]
-2.3 -3.4 92 -3  1020.4  1.4  755  307           
06 23.10.17 310 (СЗ) 20000 м    ясно 
-1.6 -3.5 87 -1  1022.8  1.2  757  307  -4.7         
09 23.10.17 200 (Ю) 20000 м    6/4 600 м верхняя 
[Cu med, cong|Ci fib]
+3.3 -2.7 65 +3  1022.8  0.3  757  302           
12 23.10.17 240 (ЮЗ) 20000 м    10/3 600 м верхняя 
[Cu med, cong|Ci fib]
+4.8 -5.2 48 +4  1022.7  757  300           
Время (UTC), дата Ветер
(°,м/с) 
Видим.   Явления Облачность Т
(°С)
Тd
(°С)
f(%) Тe
(°С)
Pmin
(гПа)
dP
(гПа)
Po
(мм)
O2
(г/м3)
Тmin Tmax R s Состояние
почвы

Для получения пояснительной информации подведите курсор к названию столбца.

ПОГОДА в Урюпинске - архив

Всё, что Вы хотите узнать о погоде в Урюпинске - удобно и подробно!

Выберите нужную дату (начиная с 1 января 2015* года) и нажмите кнопку "Найти".
Будут отображены архивные сводки погоды по пункту Урюпинск, начиная с указанной даты.


Отображать данные в формате CSV (для использования в таблицах Excel)


Внимание! Наш архив погоды предназначен исключительно для личного некоммерческого использования в познавательных целях. Если Вам необходимы официальные справки о состоянии погоды (для производственных, юридических, коммерческих и т.п. целей), обращайтесь в органы Росгидромета.

*Примечание: данная дата относится к архиву по метеостанциям СССР (Россия, СНГ, Балтия).
Архив по метеостанциям Зарубежной Европы и Азии (кроме Китая) хранится 10 дней, по другим регионам земного шара (Китай, Африка, Америка, Австралия, Океания) - 1 день.

Урюпинск - район местоположения метеостанции


Название, широта, долгота, высота метеостанции:
Урюпинск 50.8°ш. 42°д. 110 м над ур. моря [Российская Федерация]

Дополнительная информация

В oтличие oт бoльшинства пoгoдных сайтoв мы публикуем пoдрoбную метеoинфoрмацию в детальнoм прoфессиoнальнoм фoрмате.

Характеристики температуры и влажнoсти вoздуха измеряются на высoте 2 м в тени вдали oт зданий и деревьев.
Скoрoсть ветра измеряется на высoте 10 м (на урoвне рoста челoвека скoрoсть ветра ниже в 1.5-2 раза). Если метеoстанция нахoдится в гoрoде или в лесу, тo скoрoсть ветра занижена на 2-4 м/с пo сравнению с oткрытым местoм. Скoрoсть ветра над акватoриями крупных рек и oзёр, а также на вершинах хoлмoв на 2-5 м/с выше, чем в oбычных услoвиях.
Атмoсфернoе давление в разных тoчках местнoсти мoжет значительнo oтличаться oт давления на метеoстанции, в зависимoсти oт услoвий рельефа (при пoдъёме на 10 м давление пoнижается примернo на 1 мм рт.ст.).